EHI
0 0 0 0 0 0 0 0 0 0 0 0 1 2 2 1 0 0 0 0 0 0 0 0 0 0 0 0 0 0 1 1 2 2 2 2 2 1 2 2 1 0 0
0 0 0 1 1 0 0 0 0 0 0 0 1 1 1 0 0 0 0 0 0 0 0 0 0 0 0 1 1 1 2 3 2 2 1 1 1 1 2 3 2 0 0
0 0 1 2 1 0 0 0 0 0 0 0 0 1 1 0 0 0 0 0 0 0 0 0 0 0 1 2 2 2 3 4 4 3 2 1 1 1 2 2 2 1 0
0 0 1 2 1 0 0 0 0 0 0 0 0 0 0 0 0 0 0 0 0 0 0 0 0 0 1 2 2 1 2 5 5 4 3 2 3 3 3 2 2 1 1
0 0 1 1 1 0 0 0 0 0 0 0 0 0 0 0 0 0 0 0 0 0 0 0 1 1 0 1 1 0 1 4 4 3 2 2 3 4 4 3 2 1 0
0 0 0 0 0 0 0 0 0 0 0 0 0 0 0 0 0 0 0 0 0 0 0 0 1 1 0 0 0 0 0 1 1 1 0 1 2 3 4 2 1 0 1
0 0 0 0 0 0 0 0 0 0 0 0 0 0 0 0 0 0 0 0 0 0 0 0 1 1 0 0 0 0 0 0 0 0 0 0 1 2 2 1 0 1 2
0 0 0 0 0 0 0 0 0 0 0 1 0 0 0 0 0 0 0 0 0 0 0 0 0 0 0 0 0 0 0 0 0 0 0 1 2 3 3 2 2 2 2
0 0 0 0 0 0 0 0 0 0 0 0 0 0 0 0 0 0 0 0 0 0 0 0 0 0 0 0 0 0 0 0 0 0 1 2 3 3 3 4 4 4 3
0 0 0 0 0 0 0 0 0 0 0 0 0 0 0 0 0 0 0 0 1 1 0 0 0 0 0 0 0 0 0 0 0 1 2 3 3 3 3 4 5 5 4
0 0 0 0 0 0 0 0 0 0 0 0 0 0 0 0 0 0 0 0 1 1 0 0 0 0 0 0 0 0 0 0 1 2 3 3 3 3 3 3 4 4 4
0 0 0 0 0 0 0 0 0 0 0 0 0 0 0 0 0 0 0 0 1 1 0 0 0 0 0 0 0 0 0 0 2 3 3 3 3 3 3 3 3 3 3
0 0 0 0 0 0 0 0 0 0 0 0 0 0 0 0 0 0 0 0 0 0 0 0 0 0 0 0 0 0 0 0 1 2 3 3 3 3 3 3 3 3 3
0 0 0 0 0 0 0 0 0 0 0 0 0 0 0 0 0 0 0 0 0 0 0 0 0 0 0 0 0 0 0 0 0 1 2 2 2 2 2 3 3 3 3
0 0 0 0 0 0 0 0 0 0 0 0 0 0 0 0 0 0 0 0 0 0 0 0 0 0 0 0 0 0 0 0 0 0 1 1 1 1 2 2 2 2 2
0 0 0 0 0 0 0 0 0 0 0 0 0 0 0 0 0 0 0 0 0 0 0 0 0 0 0 0 0 0 0 0 0 0 0 0 0 1 2 1 1 1 1
0 0 1 1 1 0 0 0 0 0 0 0 0 0 0 0 0 0 0 0 0 0 0 0 0 0 0 0 0 0 0 0 0 0 0 0 0 1 1 1 1 1 1
0 1 2 2 2 1 0 0 0 0 0 0 0 0 0 0 0 0 0 0 0 0 0 0 0 0 0 0 0 0 0 0 0 0 0 0 0 0 0 0 0 0 0
0 1 2 3 3 2 1 0 0 0 0 0 0 0 0 0 0 0 0 0 0 0 0 0 0 0 0 0 0 0 0 0 0 0 0 0 0 0 0 0 0 0 0
0 0 2 3 3 3 2 1 0 0 0 0 0 0 0 0 0 0 0 0 0 0 0 0 0 0 0 0 0 0 0 0 0 0 0 0 0 0 0 0 0 0 0
0 1 2 3 3 3 2 1 0 0 0 0 0 0 0 0 0 0 0 0 0 0 0 0 0 0 0 0 0 0 0 0 0 0 0 0 0 0 0 0 0 0 0
0 1 2 3 3 3 2 1 0 0 0 0 0 0 0 0 0 0 0 0 0 0 0 0 0 0 0 0 0 0 0 0 0 0 0 0 0 0 0 0 0 0 0
0 0 1 1 2 3 2 1 0 0 0 0 0 0 0 0 0 0 0 0 0 0 0 0 0 0 0 0 0 0 0 0 0 0 0 0 0 0 0 0 0 0 0
1 1 0 0 1 2 1 0 0 0 0 0 0 0 0 0 0 0 0 0 0 0 0 0 0 0 0 0 0 0 0 0 0 0 0 0 0 0 0 0 0 0 0
3 2 1 0 1 2 1 0 0 0 0 0 0 0 0 0 0 0 0 0 0 0 0 0 0 0 0 0 0 0 0 0 0 0 0 0 0 0 0 0 0 0 0
5 3 2 1 2 3 2 1 0 0 0 0 0 0 0 0 0 0 0 0 0 0 0 0 0 0 0 0 0 0 0 0 0 0 0 0 0 0 0 0 0 0 0
Wind_Speed
4 5 7 6 7 8 8 9 9 8 8 9 9 9 9 9 9 9 9 9 9 10 10 10 10 10 10 11 11 11 11 10 10 9 9 9 9 9 8 7 6 8 10
4 5 5 6 7 8 8 9 9 9 8 9 10 9 9 9 10 9 9 9 9 9 10 11 10 10 10 11 11 11 11 10 10 9 8 9 9 9 9 8 6 7 9
4 5 5 7 8 8 8 8 9 9 10 10 10 9 9 10 10 10 10 10 10 10 10 11 10 10 10 11 11 11 11 11 9 7 6 7 9 10 9 9 9 9 9
5 5 7 8 8 8 8 8 9 9 9 9 9 9 9 9 10 10 10 10 10 10 10 11 11 10 11 11 11 11 11 10 8 5 6 7 8 11 10 9 9 9 8
5 6 8 7 8 8 8 9 9 9 9 9 9 9 9 9 10 10 10 10 10 10 11 11 11 11 11 11 11 11 10 9 7 6 8 8 8 11 10 10 10 10 9
5 6 8 7 8 8 8 8 8 9 8 8 8 8 9 9 9 9 10 10 11 11 11 11 11 11 11 11 11 10 9 7 5 7 7 8 8 11 11 11 11 10 10
5 6 7 7 7 8 8 8 8 8 8 9 9 8 9 9 9 10 10 11 11 11 11 12 12 11 11 11 11 10 9 7 7 7 7 8 9 11 11 11 11 10 10
5 5 6 8 7 8 8 8 8 8 8 8 9 8 8 9 10 10 10 11 11 12 12 12 12 11 12 12 11 10 8 6 7 7 8 8 10 11 11 10 10 10 10
5 5 5 5 6 7 8 8 8 8 9 9 9 9 9 9 9 10 10 10 11 11 12 12 12 12 12 12 11 10 8 5 5 5 7 7 10 11 11 11 11 10 10
4 4 4 5 5 5 6 8 8 8 8 9 9 8 7 8 9 9 10 11 10 11 12 12 12 12 12 12 11 9 6 4 7 8 6 8 11 11 11 11 11 11 11
3 3 4 4 4 4 5 6 5 6 6 5 7 7 4 5 6 7 11 11 10 11 11 11 11 11 11 11 10 7 5 6 8 7 7 10 11 10 10 10 10 10 10
3 3 3 3 4 4 3 3 3 4 4 4 5 5 4 5 5 7 10 10 11 11 11 10 9 7 4 6 6 4 5 8 7 7 8 11 11 10 10 10 10 9 9
2 3 2 2 3 3 3 3 2 2 3 4 5 5 4 4 4 4 4 5 6 6 6 6 5 5 5 5 5 5 6 6 5 6 8 11 10 10 10 10 10 10 9
2 2 2 2 2 3 3 3 2 2 2 3 3 5 3 3 3 4 3 4 4 3 4 4 4 6 6 6 6 7 7 5 6 5 8 11 10 10 10 10 10 9 9
2 2 2 2 2 3 3 2 2 3 3 4 3 3 4 3 4 4 4 4 4 4 4 4 5 6 6 6 6 7 7 7 7 6 6 11 10 10 10 10 9 9 9
2 2 2 2 3 3 3 2 3 3 3 3 3 3 4 3 3 3 4 4 4 4 4 4 5 5 5 5 6 7 7 6 7 6 6 8 11 10 10 9 9 9 9
3 3 3 2 2 3 3 3 2 2 3 3 3 3 3 3 3 3 3 4 4 4 4 4 5 4 5 5 6 6 6 6 6 6 6 5 6 10 10 10 9 9 9
3 3 4 2 3 3 3 3 2 3 3 2 2 2 2 2 3 3 3 3 3 3 3 3 3 4 4 4 4 5 5 5 6 6 5 5 4 4 8 10 9 9 9
3 4 4 3 3 4 3 3 2 3 3 2 2 2 2 2 3 3 3 3 3 3 3 3 3 3 4 4 4 4 4 4 4 4 6 6 5 5 5 7 9 10 10
4 4 4 4 3 4 3 2 2 2 2 2 2 2 2 2 3 3 3 3 3 3 3 3 4 3 3 3 4 4 4 4 3 4 4 5 4 5 5 4 4 6 9
5 5 5 5 4 3 2 2 2 2 2 2 2 3 2 2 2 2 2 3 2 3 3 3 4 4 3 2 2 3 4 4 4 3 3 3 4 4 4 4 3 3 4
5 5 5 5 4 4 2 2 2 2 2 2 2 2 2 2 2 2 3 3 3 3 3 3 3 2 2 1 0 1 2 3 2 2 2 2 3 3 3 3 3 3 3
5 5 5 5 5 4 4 3 2 2 2 2 2 2 1 1 2 2 2 3 2 2 3 2 2 2 1 1 1 2 0 1 2 2 2 2 2 2 2 2 3 3 3
6 5 5 5 5 5 5 4 4 3 2 2 2 2 2 2 2 2 2 2 2 2 2 2 2 1 1 1 1 1 2 1 1 2 2 2 2 1 1 1 2 2 3
5 5 5 5 5 5 4 4 4 3 2 2 2 3 2 2 2 2 2 2 2 2 2 2 1 1 1 1 1 1 1 1 1 1 1 1 1 1 1 1 1 1 2
5 5 5 5 5 5 5 5 5 4 3 3 2 2 2 2 2 3 2 2 2 1 1 1 1 2 1 1 1 1 1 1 1 1 1 1 1 1 1 1 1 1 1
Wind_Direction
26 28 27 18 28 37 42 52 50 52 59 64 68 69 69 71 71 72 72 72 73 75 76 78 77 80 82 84 89 93 94 93 95 95 96 95 94 97 96 97 109 106 103
31 36 40 24 38 44 50 56 54 53 61 65 67 68 69 72 72 73 71 71 73 76 76 79 79 81 84 86 88 91 92 90 92 95 102 103 96 95 94 87 73 89 101
44 46 56 45 46 48 52 57 58 59 62 65 67 71 71 71 71 71 72 73 75 75 74 76 76 79 83 86 86 86 86 86 87 94 109 102 97 90 91 89 87 92 98
53 52 53 52 53 52 57 63 62 62 65 68 69 71 71 72 70 70 71 74 78 79 76 74 74 78 80 83 85 85 84 82 82 91 95 88 91 88 89 91 91 92 94
62 58 62 52 57 57 60 64 65 65 65 68 70 72 74 73 71 71 73 73 75 79 79 77 75 75 77 81 83 83 83 81 81 80 80 84 85 85 87 88 90 91 91
72 65 68 54 59 60 62 63 65 66 65 66 70 73 75 77 75 75 76 77 77 78 80 79 77 75 77 80 81 80 79 77 86 80 79 82 84 85 86 86 86 86 86
75 73 75 61 57 58 60 61 63 64 63 64 67 73 76 77 75 75 76 78 79 80 80 80 79 78 78 79 81 78 76 70 72 78 79 79 80 84 85 85 84 82 82
77 78 85 85 65 57 56 58 61 62 62 65 67 73 75 77 77 76 77 80 80 80 80 80 81 82 80 79 80 78 71 61 79 78 79 78 78 82 84 84 83 82 80
85 81 80 86 94 90 68 55 57 61 62 63 66 71 74 77 79 80 81 81 82 83 84 81 79 78 76 75 74 73 66 57 82 81 84 78 79 81 82 81 79 78 78
94 83 82 83 73 76 87 71 59 61 64 66 68 70 79 91 91 89 89 81 82 83 84 82 82 80 76 73 71 68 55 69 83 82 77 79 80 81 81 81 79 77 75
97 88 84 82 79 73 69 78 80 80 72 84 89 85 88 81 83 87 72 77 82 86 85 85 84 84 84 79 70 65 52 67 78 73 72 76 77 79 82 81 80 78 76
110 101 92 85 84 87 79 81 64 70 74 65 65 72 70 76 74 80 88 83 85 90 91 88 92 101 96 90 87 75 67 71 74 76 74 74 75 74 76 77 78 77 76
99 101 91 82 84 87 90 77 65 63 72 69 68 74 72 80 93 86 91 99 98 101 93 100 107 78 76 73 72 72 65 64 66 70 73 74 75 73 72 75 77 75 74
111 109 108 92 94 96 91 86 82 79 75 75 71 72 73 74 77 81 80 81 86 85 83 86 82 83 79 80 78 76 75 71 72 73 71 67 69 72 72 74 76 73 69
147 145 115 108 89 89 85 86 99 85 74 81 69 71 75 77 81 83 83 78 78 84 91 83 82 80 76 75 74 73 74 72 76 75 77 69 66 66 68 69 71 71 67
162 137 131 128 108 103 97 94 83 83 85 76 76 76 78 79 83 86 86 80 77 79 80 87 86 84 79 77 75 71 69 72 75 78 80 79 67 61 62 65 67 68 67
158 146 126 127 132 117 96 85 86 89 91 85 83 79 85 83 94 97 88 91 91 96 98 90 89 85 85 85 80 74 69 63 68 70 72 74 79 69 58 59 65 68 67
164 153 136 144 143 124 112 102 94 86 83 84 79 66 75 92 91 88 92 94 93 94 93 93 92 90 89 84 80 77 75 68 65 69 75 76 68 69 70 61 62 63 63
174 163 150 149 145 133 122 117 102 96 89 81 86 76 76 87 97 101 95 103 100 97 94 95 88 88 89 87 86 81 75 68 62 68 71 70 70 66 71 78 69 61 61
176 167 153 147 146 135 138 129 118 103 95 83 82 80 71 84 93 108 114 114 109 107 101 104 102 95 88 92 91 86 82 80 69 62 63 66 65 68 65 68 82 78 66
173 174 164 165 155 151 146 145 135 123 116 101 84 75 84 98 108 112 115 116 113 106 110 114 110 111 111 112 114 109 99 85 70 71 64 68 73 68 72 67 65 73 88
174 178 175 175 166 161 154 158 151 136 123 102 105 101 103 116 122 130 136 127 120 108 116 119 124 126 122 186 211 168 144 121 89 74 77 65 69 73 62 67 76 77 71
182 180 180 183 174 169 163 162 155 147 155 143 135 123 115 123 131 143 139 136 133 140 135 143 153 168 161 170 299 307 289 103 120 114 83 79 68 60 63 58 67 70 75
186 184 186 183 183 174 170 176 173 178 168 158 144 140 150 143 135 147 154 153 145 138 140 152 153 163 204 198 157 339 344 21 247 143 133 105 83 62 54 64 69 71 76
179 183 188 182 183 180 181 182 193 187 165 149 144 151 156 136 140 150 158 156 150 147 149 145 158 198 230 271 264 170 124 146 260 251 152 141 127 92 64 36 88 81 79
165 170 176 179 175 178 186 189 195 184 172 164 165 156 159 147 152 147 152 161 156 154 165 172 188 192 244 264 279 267 245 234 240 236 211 175 118 92 86 53 55 84 86